Flag for U.S.A. Weather past 2 weeks in Raleigh, North Carolina, U.S.A.

Now
78 °F

Mostly cloudy.


Feels Like: 80 °F
Forecast: 71 / 86 °F
Wind: 14 mph from Southwest

Location: Raleigh-Durham International Airport

Current Time: Jul 2, 2015 at 12:34:32 AM

Latest Report: Jul 1, 2015 at 10:51 PM


Visibility: 8 mi

Pressure: 29.94 "Hg

Humidity: 76%

Dew point: 70 °F

Location of RaleighLocation

Historic Weather in Raleigh — Graph

°F

Raleigh temperature yesterday

Maximum temperature yesterday: 87 °F (at 3:51 PM)
Minimum temperature yesterday: 68 °F (at 4:51 AM)
Average temperature yesterday: 77 °F

Past Weeks' High & Low Weather Summary

 TemperatureHumidityPressure
High97 °F (Jun 18, 3:51 PM)97% (Jun 29, 4:51 AM)30.12 "Hg (Jun 29, 4:51 AM)
Low60 °F (Jun 29, 5:51 AM)37% (Jun 22, 4:51 PM)29.74 "Hg (Jun 28, 2:51 AM)
Average81 °F69%29.96 "Hg
* Reported Jun 16 10:51 PM — Jul 1 10:51 PM, Raleigh, Weather by CustomWeather, © 2015

Note: Actual official high and low records may vary slightly from our data, if they occured in-between our weather recording intervals... More about our weather records

Advertising

Raleigh weather history for previous 24 hours

 ConditionsComfort  
Time TempWeatherWind HumidityBarometerVisibility
10:51 PM
Wed, Jul 1
78 °FMostly cloudy.14 mph76%29.94 "Hg8 mi
9:51 PM80 °FMostly cloudy.12 mph74%29.93 "Hg8 mi
8:51 PM81 °FOvercast.8 mph69%29.93 "Hg7 mi
7:51 PM82 °FOvercast.7 mph65%29.91 "Hg7 mi
6:51 PM83 °FOvercast.8 mph61%29.90 "Hg7 mi
5:51 PM85 °FPartly sunny.8 mph57%29.90 "Hg7 mi
4:51 PM85 °FBroken clouds.7 mph57%29.91 "Hg7 mi
3:51 PM87 °FBroken clouds.8 mph55%29.91 "Hg8 mi
2:51 PM86 °FPartly sunny.8 mph57%29.93 "Hg8 mi
1:51 PM86 °FPartly sunny.7 mph57%29.94 "Hg8 mi
12:51 PM85 °FPartly sunny.7 mph61%29.96 "Hg8 mi
11:51 AM82 °FMostly cloudy.6 mph65%29.96 "Hg8 mi
10:51 AM80 °FMostly cloudy.7 mph69%29.96 "Hg8 mi
9:51 AM76 °FPartly sunny.3 mph80%29.96 "Hg8 mi
8:51 AM74 °FPartly sunny.7 mph85%29.95 "Hg7 mi
7:51 AM70 °FFog.8 mph93%29.95 "Hg5 mi
6:55 AM70 °FFog.6 mph88%29.95 "Hg4 mi
6:04 AM68 °FFog.7 mph94%29.93 "Hg2 mi
5:51 AM68 °FFog.7 mph93%29.91 "Hg5 mi
4:51 AM68 °FPassing clouds.6 mph93%29.90 "Hg8 mi
3:51 AM69 °FPassing clouds.7 mph90%29.90 "Hg10 mi
2:51 AM70 °FPassing clouds.9 mph87%29.90 "Hg10 mi
1:51 AM69 °FPassing clouds.8 mph90%29.90 "Hg10 mi
12:51 AM69 °FPassing clouds.6 mph90%29.91 "Hg10 mi
Weather by CustomWeather, © 2015

See weather overviewHow to use our weather pages